#timestamp,LO_Frequency,Hit,StdDev 
1575388815.1,286046995.8,P
1575388835.9,286046993.6,Y
1575388855.7,286046997.3,P
1575388875.5,286046999.5,N
1575388895.4,286046998.5,N
1575388915.2,286047001.2,N
1575388935.1,286047000.8,N
1575388936.0,286047000.8,N
1575388955.8,286046998.6,N
1575388975.6,286047001.0,N
1575388995.5,286047000.7,N
1575389015.3,286046999.0,N
1575389035.2,286046999.1,N
1575389055.9,286047001.2,N
1575389075.7,286046998.5,N
1575389095.6,286046998.5,N
1575389115.4,286046999.9,N
1575389135.2,286047002.4,N
1575389155.1,286047002.7,N
1575389156.0,286047002.7,N
1575389175.8,286047002.5,N
1575389195.7,286047000.6,N
1575389215.5,286047000.6,N
1575389235.3,286047001.1,N
1575389255.2,286046999.4,N
1575389275.0,286046997.2,N
1575389275.9,286046997.2,N
1575389295.7,286046996.6,N
1575389315.6,286046996.7,N
1575389335.4,286046997.1,N
1575389355.3,286046996.6,N
1575389375.1,286046998.4,N
1575389376.0,286046998.4,N
1575389395.8,286046999.6,N
1575389415.7,286046999.4,N
1575389435.5,286046999.9,N
1575389455.3,286047001.9,N
1575389475.2,286047002.8,N
1575389495.0,286047005.6,N
1575389495.9,286047005.6,N
1575389515.8,286047003.2,N
1575389535.6,286047003.5,N
1575389555.4,286047003.9,N
1575389575.3,286047003.9,N
1575389595.1,286047004.3,N
1575389615.9,286047001.7,N
1575389635.7,286047002.2,N
1575389655.5,286047002.5,N
1575389675.4,286047000.5,N
1575389695.2,286047000.7,N
1575389715.0,286047000.7,N
1575389715.9,286047000.7,N
1575389735.8,286047000.7,N
1575389755.6,286047000.9,N
1575389775.5,286046998.8,N
1575389795.3,286046998.6,N
1575389815.1,286046999.5,N
1575389835.9,286046998.3,N
1575389855.7,286047001.0,N
1575389875.5,286047000.6,N
1575389895.4,286047002.3,N
1575389915.2,286047003.8,N
1575389935.1,286047006.7,Y
1575389936.0,286047006.7,P
1575389955.8,286047004.0,N
1575389975.6,286047001.8,N
1575389995.5,286047009.2,Y
1575390015.3,286047012.2,P
1575390035.2,286047005.1,N
1575390055.9,286047002.2,N
1575390075.7,286046997.2,N
1575390095.6,286046993.5,N
1575390115.4,286046992.7,N
1575390135.2,286046996.2,N
1575390155.1,286046989.0,N
1575390156.0,286046989.0,N
1575390175.8,286046985.8,N
1575390195.7,286046986.7,N
1575390215.5,286046988.2,N
1575390235.3,286046983.9,N
1575390255.2,286046984.7,N
1575390275.0,286046982.8,N
1575390275.9,286046982.8,N
1575390295.8,286046980.5,N
1575390315.6,286046981.3,N
1575390335.4,286046980.0,N
1575390355.3,286046977.9,N
1575390375.1,286046978.5,N
1575390395.8,286046978.7,N
1575390415.7,286046978.6,N
1575390435.5,286046978.0,N
1575390455.4,286046980.3,N
1575390475.2,286046978.2,N
1575390495.0,286046978.0,N
1575390495.9,286046978.0,N
1575390515.8,286046975.9,N
1575390535.6,286046978.4,N
1575390555.4,286046978.2,N
1575390575.3,286046980.4,N
1575390595.1,286046979.7,Y
1575390615.9,286046996.3,P
1575390635.7,286046995.5,N
1575390655.5,286046995.7,N
1575390675.4,286046995.2,N
1575390695.2,286046997.2,N
1575390715.0,286046999.3,N
1575390716.0,286046999.3,N
1575390735.8,286046998.7,N
1575390755.6,286047000.8,N
1575390775.5,286047001.1,N
1575390795.3,286046999.0,N
1575390815.1,286046999.4,N
1575390835.9,286046999.9,N
1575390855.7,286047000.6,N
1575390875.6,286047000.8,N
1575390895.4,286047001.2,N
1575390915.2,286047001.2,N
1575390935.1,286047000.5,N
1575390936.0,286047000.5,N
1575390955.8,286047002.3,N
1575390975.6,286047002.4,N
1575390995.5,286047000.3,N
1575391015.3,286047002.7,N
1575391035.2,286047001.6,N
1575391055.9,286047002.2,N
1575391075.7,286047002.5,N
1575391095.6,286047003.8,N
1575391115.4,286047003.9,N
1575391135.2,286047001.4,N
1575391155.1,286047003.9,N
1575391156.0,286047003.9,N
1575391175.8,286047002.1,N
1575391195.7,286047002.2,N
1575391215.5,286047004.3,N
1575391235.3,286046999.7,N
1575391255.2,286047002.4,N
1575391275.0,286047004.1,N
1575391275.9,286047004.1,N
1575391295.8,286047003.9,N
1575391315.6,286047004.0,N
1575391335.4,286047004.4,N
1575391355.3,286047003.9,N
1575391375.1,286047003.8,N
1575391395.8,286047005.5,Y
1575391415.7,286047002.5,P
1575391435.5,286047001.7,P
1575391455.4,286047001.8,P
1575391475.2,286047001.4,Y
1575391495.0,286046998.6,P
1575391495.9,286046998.6,N
1575391515.8,286047001.2,N
1575391535.6,286046998.7,N
1575391555.5,286047000.2,N
1575391575.3,286047000.4,N
1575391595.1,286046999.9,N
1575391615.9,286047000.3,N
1575391635.7,286046999.4,N
1575391655.5,286046998.7,N
1575391675.4,286046997.3,N
1575391695.2,286046997.7,N
1575391715.1,286046995.2,Y
1575391716.0,286046995.2,P
1575391735.8,286046995.3,N
1575391755.6,286046999.0,N
1575391775.5,286046997.8,N
1575391795.3,286046995.1,N
1575391815.2,286046995.7,N
1575391835.9,286046996.0,N
1575391855.7,286046996.4,N
1575391875.6,286046994.1,Y
1575391895.4,286046997.7,P
1575391915.3,286046996.8,P
1575391935.1,286046997.7,P
1575391936.0,286046997.7,Y
1575391955.8,286047000.3,P
1575391975.7,286047001.9,N
1575391995.5,286047001.9,N
1575392015.3,286047001.5,N
1575392035.2,286047002.6,N
1575392055.0,286047002.4,N
1575392055.9,286047002.4,N
1575392075.8,286047002.5,N
1575392095.6,286047001.9,N
1575392115.4,286047001.6,N
1575392135.3,286046999.7,N
1575392155.1,286047002.8,N
1575392175.9,286047002.6,N
1575392195.7,286047002.6,N
1575392215.5,286047002.2,N
1575392235.4,286047000.1,N
1575392255.2,286047004.4,Y
1575392275.0,286047000.7,P
1575392276.0,286047000.7,N
1575392295.8,286046998.5,P
1575392315.6,286046998.6,N
1575392335.5,286046998.7,N
1575392355.3,286046999.1,N
1575392375.1,286046998.9,N
1575392395.9,286046998.7,N
